Location: White Ridge parking lot
(35.4984°N, 106.8413°W)
Time: 04:22:56
(UTC-06:00)

ITAMSAT 1 - Pass Details

Date: 18 September 2019
Orbit: 784 x 796 km, 98.9° (Epoch: 22 October)

Event Time Altitude Azimuth Distance (km) Brightness Sun altitude
Rises 06:13:01 0° 16° (NNE) 3,277 11.2 -8.8°
Reaches altitude 10° 06:15:21 10° 19° (NNE) 2,346 10.5 -8.3°
Maximum altitude 06:20:30 68° 102° (ESE) 847 8.1 -7.3°
Drops below altitude 10° 06:25:38 10° 185° (S) 2,338 10.0 -6.2°
Sets 06:27:58 0° 188° (S) 3,265 10.7 -5.7°
